Terug naar catalogus

MIDAS 7/ERS 10

ActiefMilitairPO
NORAD 622·PAYLOAD·🇺🇸 United States

Gelanceerd Jul 19, 1963 vanaf Vandenberg Space Force Base

Loading…

Volgende Passages (komende 24 uur)

TLE

VersSource: Space-Track

Epoch: Sep 14, 2026, 07:42 UTC

1 00622U 63030A   26257.32112696 -.00000003  00000-0 -27837-2 0  9998
2 00622  88.4548 206.5510 0029562 333.6724  26.2623  8.57932496467427

Volg MIDAS 7/ERS 10 in realtime met AllMySat

Download on the App Store